,,PA_Meas_PMT16A,,PR_Meas_QMR101_102,,RH_Meas_QMH101,,SR_Meas_QMS101,,TA_Meas_QMH101,,GenWind,,GenWind,
time,status,PA,status,PR,status,RH,status,SR,status,TA,status,DirAvg,status,SpdAvg,
2012-08-02, 00:00:04,VALID,918.797,VALID,0,VALID,96.2228,VALID,0,VALID,19.5888,VALID,19,VALID,0,
2012-08-02, 00:01:04,VALID,918.802,VALID,0,VALID,96.2304,VALID,0,VALID,19.5693,VALID,18,VALID,0,
2012-08-02, 00:02:04,VALID,918.767,VALID,0,VALID,95.9941,VALID,0,VALID,19.5498,VALID,19,VALID,0,
2012-08-02, 00:03:04,VALID,918.744,VALID,0,VALID,95.8568,VALID,0,VALID,19.4537,VALID,19,VALID,0,
2012-08-02, 00:04:04,VALID,918.737,VALID,0,VALID,95.8873,VALID,0,VALID,19.3547,VALID,19,VALID,0,
2012-08-02, 00:05:04,VALID,918.74,VALID,0,VALID,95.9331,VALID,0,VALID,19.3352,VALID,19,VALID,0,
2012-08-02, 00:06:04,VALID,918.757,VALID,0,VALID,95.8721,VALID,0,VALID,19.2962,VALID,18,VALID,0,
2012-08-02, 00:07:04,VALID,918.755,VALID,0,VALID,95.9407,VALID,0,VALID,19.2558,VALID,19,VALID,0,
2012-08-02, 00:08:04,VALID,918.754,VALID,0,VALID,96.0322,VALID,0,VALID,19.2363,VALID,19,VALID,0,
2012-08-02, 00:09:04,VALID,918.737,VALID,0,VALID,96.0779,VALID,0,VALID,19.2363,VALID,19,VALID,0,
2012-08-02, 00:10:04,VALID,918.745,VALID,0,VALID,96.1999,VALID,0,VALID,19.2558,VALID,18,VALID,0,
2012-08-02, 00:11:04,VALID,918.735,VALID,0,VALID,96.2685,VALID,0,VALID,19.3157,VALID,19,VALID,0,
2012-08-02, 00:12:04,VALID,918.757,VALID,0,VALID,96.3142,VALID,0,VALID,19.2962,VALID,19,VALID,0,
2012-08-02, 00:13:04,VALID,918.771,VALID,0,VALID,96.2304,VALID,0,VALID,19.2767,VALID,18,VALID,0,
2012-08-02, 00:14:04,VALID,918.751,VALID,0,VALID,96.1389,VALID,0,VALID,19.2377,VALID,19,VALID,0,
2012-08-02, 00:15:04,VALID,918.752,VALID,0,VALID,96.2685,VALID,0,VALID,19.2377,VALID,19,VALID,0,
2012-08-02, 00:16:04,VALID,918.707,VALID,0,VALID,96.6344,VALID,0,VALID,19.3157,VALID,19,VALID,0,
2012-08-02, 00:17:04,VALID,918.744,VALID,0,VALID,96.6802,VALID,0,VALID,19.4132,VALID,19,VALID,0,
2012-08-02, 00:18:04,VALID,918.74,VALID,0,VALID,96.6649,VALID,0,VALID,19.4508,VALID,19,VALID,0,
2012-08-02, 00:19:04,VALID,918.707,VALID,0,VALID,96.6649,VALID,0,VALID,19.4718,VALID,19,VALID,0,
2012-08-02, 00:20:04,VALID,918.707,VALID,0,VALID,96.6039,VALID,0,VALID,19.4703,VALID,19,VALID,0,
2012-08-02, 00:21:04,VALID,918.642,VALID,0,VALID,96.4896,VALID,0,VALID,19.4718,VALID,18,VALID,0,
2012-08-02, 00:22:04,VALID,918.611,VALID,0,VALID,96.5048,VALID,0,VALID,19.4523,VALID,19,VALID,0,
2012-08-02, 00:23:04,VALID,918.636,VALID,0,VALID,96.4362,VALID,0,VALID,19.3937,VALID,32,VALID,0,
2012-08-02, 00:24:04,VALID,918.67,VALID,0,VALID,96.4743,VALID,0,VALID,19.4132,VALID,32,VALID,0,
2012-08-02, 00:25:04,VALID,918.717,VALID,0,VALID,96.4972,VALID,0,VALID,19.3728,VALID,32,VALID,0,
2012-08-02, 00:26:04,VALID,918.74,VALID,0,VALID,96.6878,VALID,0,VALID,19.4327,VALID,306,VALID,0,
2012-08-02, 00:27:04,VALID,918.779,VALID,0,VALID,96.7411,VALID,0,VALID,19.4718,VALID,306,VALID,0,
2012-08-02, 00:28:04,VALID,918.791,VALID,0,VALID,96.7564,VALID,0,VALID,19.4703,VALID,306,VALID,0,
2012-08-02, 00:29:04,VALID,918.782,VALID,0,VALID,96.7488,VALID,0,VALID,19.5303,VALID,306,VALID,0,
2012-08-02, 00:30:04,VALID,918.802,VALID,0,VALID,96.7183,VALID,0,VALID,19.5108,VALID,307,VALID,0,
2012-08-02, 00:31:04,VALID,918.786,VALID,0,VALID,96.7335,VALID,0,VALID,19.5498,VALID,306,VALID,0,
2012-08-02, 00:32:04,VALID,918.754,VALID,0,VALID,96.7335,VALID,0,VALID,19.5498,VALID,306,VALID,0,
2012-08-02, 00:33:04,VALID,918.723,VALID,0,VALID,96.6954,VALID,0,VALID,19.5303,VALID,306,VALID,0,
2012-08-02, 00:34:04,VALID,918.693,VALID,0,VALID,96.703,VALID,0,VALID,19.5303,VALID,306,VALID,0,
2012-08-02, 00:35:04,VALID,918.696,VALID,0,VALID,96.7488,VALID,0,VALID,19.5288,VALID,306,VALID,0,
2012-08-02, 00:36:04,VALID,918.669,VALID,0,VALID,96.7411,VALID,0,VALID,19.5693,VALID,306,VALID,0,
2012-08-02, 00:37:04,VALID,918.716,VALID,0,VALID,96.7259,VALID,0,VALID,19.5693,VALID,306,VALID,0,
2012-08-02, 00:38:04,VALID,918.717,VALID,0,VALID,96.7564,VALID,0,VALID,19.5693,VALID,307,VALID,0,
2012-08-02, 00:39:04,VALID,918.755,VALID,0,VALID,96.7564,VALID,0,VALID,19.5693,VALID,306,VALID,0,
2012-08-02, 00:40:04,VALID,918.751,VALID,0,VALID,96.764,VALID,0,VALID,19.5888,VALID,306,VALID,0,
2012-08-02, 00:41:04,VALID,918.777,VALID,0,VALID,96.7335,VALID,0,VALID,19.5693,VALID,306,VALID,0,
2012-08-02, 00:42:04,VALID,918.769,VALID,0,VALID,96.7488,VALID,0,VALID,19.5483,VALID,306,VALID,0,
2012-08-02, 00:43:04,VALID,918.731,VALID,0,VALID,96.7335,VALID,0.107441,VALID,19.5678,VALID,306,VALID,0,
2012-08-02, 00:44:04,VALID,918.739,VALID,0,VALID,96.7411,VALID,0,VALID,19.5693,VALID,306,VALID,0,
2012-08-02, 00:45:04,VALID,918.683,VALID,0,VALID,96.7411,VALID,0,VALID,19.5498,VALID,306,VALID,0,
2012-08-02, 00:46:04,VALID,918.649,VALID,0,VALID,96.7411,VALID,0,VALID,19.5498,VALID,306,VALID,0,
2012-08-02, 00:47:04,VALID,918.66,VALID,0,VALID,96.7716,VALID,0,VALID,19.5483,VALID,306,VALID,0,
2012-08-02, 00:48:04,VALID,918.608,VALID,0,VALID,96.8021,VALID,0,VALID,19.5693,VALID,306,VALID,0,
2012-08-02, 00:49:04,VALID,918.616,VALID,0,VALID,96.7869,VALID,0,VALID,19.5678,VALID,306,VALID,0,
2012-08-02, 00:50:04,VALID,918.6,VALID,0,VALID,96.7945,VALID,0.107441,VALID,19.5873,VALID,306,VALID,0,
2012-08-02, 00:51:04,VALID,918.576,VALID,0,VALID,96.7793,VALID,0,VALID,19.6083,VALID,357,VALID,0,
2012-08-02, 00:52:04,VALID,918.6,VALID,0,VALID,96.7869,VALID,0,VALID,19.6083,VALID,3,VALID,0,
2012-08-02, 00:53:04,VALID,918.612,VALID,0,VALID,96.7335,VALID,0,VALID,19.6083,VALID,3,VALID,0,
2012-08-02, 00:54:04,VALID,918.629,VALID,0,VALID,96.7488,VALID,0,VALID,19.5888,VALID,3,VALID,0,
2012-08-02, 00:55:04,VALID,918.619,VALID,0,VALID,96.7183,VALID,0,VALID,19.5888,VALID,3,VALID,0,
2012-08-02, 00:56:04,VALID,918.629,VALID,0,VALID,96.642,VALID,0,VALID,19.5498,VALID,3,VALID,0,
2012-08-02, 00:57:04,VALID,918.653,VALID,0,VALID,96.6344,VALID,0,VALID,19.5093,VALID,3,VALID,0,
2012-08-02, 00:58:04,VALID,918.664,VALID,0,VALID,96.6497,VALID,0,VALID,19.4913,VALID,3,VALID,0,
2012-08-02, 00:59:04,VALID,918.657,VALID,0,VALID,96.6725,VALID,0,VALID,19.4703,VALID,3,VALID,0,
2012-08-02, 01:00:04,VALID,918.689,VALID,0,VALID,96.703,VALID,0,VALID,19.4913,VALID,3,VALID,0,
2012-08-02, 01:01:04,VALID,918.682,VALID,0,VALID,96.7183,VALID,0,VALID,19.4913,VALID,3,VALID,0,
2012-08-02, 01:02:04,VALID,918.664,VALID,0,VALID,96.7793,VALID,0,VALID,19.5108,VALID,3,VALID,0,
2012-08-02, 01:03:04,VALID,918.66,VALID,0,VALID,96.7793,VALID,0,VALID,19.5108,VALID,3,VALID,0,
2012-08-02, 01:04:04,VALID,918.638,VALID,0,VALID,96.764,VALID,0,VALID,19.5303,VALID,3,VALID,0,
2012-08-02, 01:05:04,VALID,918.595,VALID,0,VALID,96.764,VALID,0,VALID,19.5288,VALID,3,VALID,0,
2012-08-02, 01:06:04,VALID,918.607,VALID,0,VALID,96.7564,VALID,0,VALID,19.5093,VALID,3,VALID,0,
2012-08-02, 01:07:04,VALID,918.6,VALID,0,VALID,96.7259,VALID,0,VALID,19.4913,VALID,3,VALID,0,
2012-08-02, 01:08:04,VALID,918.601,VALID,0,VALID,96.7564,VALID,0,VALID,19.4898,VALID,3,VALID,0,
2012-08-02, 01:09:04,VALID,918.585,VALID,0,VALID,96.764,VALID,0,VALID,19.5108,VALID,2,VALID,0,
2012-08-02, 01:10:04,VALID,918.585,VALID,0,VALID,96.7869,VALID,0,VALID,19.4703,VALID,2,VALID,0,
2012-08-02, 01:11:04,VALID,918.563,VALID,0,VALID,96.8021,VALID,0,VALID,19.4913,VALID,2,VALID,0,
2012-08-02, 01:12:04,VALID,918.531,VALID,0,VALID,96.7945,VALID,0,VALID,19.4913,VALID,2,VALID,0,
2012-08-02, 01:13:04,VALID,918.529,VALID,0,VALID,96.7716,VALID,0,VALID,19.4508,VALID,2,VALID,0,
2012-08-02, 01:14:04,VALID,918.506,VALID,0,VALID,96.7869,VALID,0,VALID,19.4523,VALID,2,VALID,0,
2012-08-02, 01:15:04,VALID,918.492,VALID,0,VALID,96.8174,VALID,0,VALID,19.4313,VALID,2,VALID,0,
2012-08-02, 01:16:04,VALID,918.503,VALID,0,VALID,96.7869,VALID,0,VALID,19.4523,VALID,2,VALID,0,
2012-08-02, 01:17:04,VALID,918.49,VALID,0,VALID,96.8326,VALID,0,VALID,19.4118,VALID,2,VALID,0,
2012-08-02, 01:18:04,VALID,918.518,VALID,0,VALID,96.8021,VALID,0,VALID,19.4327,VALID,2,VALID,0,
2012-08-02, 01:19:04,VALID,918.475,VALID,0,VALID,96.7716,VALID,0,VALID,19.3923,VALID,1,VALID,0,
2012-08-02, 01:20:04,VALID,918.469,VALID,0,VALID,96.7869,VALID,0,VALID,19.3937,VALID,348,VALID,0,
2012-08-02, 01:21:04,VALID,918.443,VALID,0,VALID,96.7869,VALID,0,VALID,19.3937,VALID,329,VALID,0,
2012-08-02, 01:22:04,VALID,918.391,VALID,0,VALID,96.7716,VALID,0,VALID,19.3533,VALID,329,VALID,0,
2012-08-02, 01:23:04,VALID,918.394,VALID,0,VALID,96.7335,VALID,0.107441,VALID,19.3742,VALID,329,VALID,0,
2012-08-02, 01:24:04,VALID,918.327,VALID,0,VALID,96.703,VALID,0,VALID,19.3742,VALID,3,VALID,0,
2012-08-02, 01:25:04,VALID,918.331,VALID,0,VALID,96.6878,VALID,0,VALID,19.3742,VALID,3,VALID,0,
2012-08-02, 01:26:04,VALID,918.329,VALID,0,VALID,96.6497,VALID,0,VALID,19.3533,VALID,3,VALID,0,
2012-08-02, 01:27:04,VALID,918.314,VALID,0,VALID,96.6268,VALID,0.107441,VALID,19.3338,VALID,3,VALID,0,
2012-08-02, 01:28:04,VALID,918.331,VALID,0,VALID,96.6192,VALID,0,VALID,19.3143,VALID,3,VALID,0,
2012-08-02, 01:29:04,VALID,918.337,VALID,0,VALID,96.6497,VALID,0.107441,VALID,19.3338,VALID,3,VALID,0,
2012-08-02, 01:30:04,VALID,918.33,VALID,0,VALID,96.5963,VALID,0.107441,VALID,19.3338,VALID,3,VALID,0,
2012-08-02, 01:31:04,VALID,918.33,VALID,0,VALID,96.5429,VALID,0.107441,VALID,19.3547,VALID,3,VALID,0,
2012-08-02, 01:32:04,VALID,918.357,VALID,0,VALID,96.5277,VALID,0.107441,VALID,19.3338,VALID,3,VALID,0,
2012-08-02, 01:33:04,VALID,918.339,VALID,0,VALID,96.4972,VALID,0.107441,VALID,19.3338,VALID,3,VALID,0,
2012-08-02, 01:34:04,VALID,918.35,VALID,0,VALID,96.4133,VALID,0.107441,VALID,19.3338,VALID,3,VALID,0,
2012-08-02, 01:35:04,VALID,918.339,VALID,0,VALID,96.3371,VALID,0,VALID,19.3338,VALID,3,VALID,0,
2012-08-02, 01:36:04,VALID,918.335,VALID,0,VALID,96.2761,VALID,0.107441,VALID,19.3533,VALID,3,VALID,0,
2012-08-02, 01:37:04,VALID,918.275,VALID,0,VALID,96.2304,VALID,0,VALID,19.3533,VALID,3,VALID,0,
2012-08-02, 01:38:04,VALID,918.258,VALID,0,VALID,96.1389,VALID,0.107441,VALID,19.3728,VALID,3,VALID,0,
2012-08-02, 01:39:04,VALID,918.226,VALID,0,VALID,96.0322,VALID,0.107441,VALID,19.3728,VALID,3,VALID,0,
2012-08-02, 01:40:04,VALID,918.189,VALID,0,VALID,95.9407,VALID,0,VALID,19.3937,VALID,2,VALID,0,
2012-08-02, 01:41:04,VALID,918.179,VALID,0,VALID,95.895,VALID,0,VALID,19.3728,VALID,353,VALID,0,
2012-08-02, 01:42:04,VALID,918.174,VALID,0,VALID,95.8111,VALID,0.107441,VALID,19.3923,VALID,353,VALID,0,
2012-08-02, 01:43:04,VALID,918.176,VALID,0,VALID,95.7501,VALID,0,VALID,19.3923,VALID,353,VALID,0,
2012-08-02, 01:44:04,VALID,918.122,VALID,0,VALID,95.6967,VALID,0,VALID,19.3923,VALID,353,VALID,0,
2012-08-02, 01:45:04,VALID,918.112,VALID,0,VALID,95.651,VALID,0.107441,VALID,19.4118,VALID,317,VALID,0,
2012-08-02, 01:46:04,VALID,918.088,VALID,0,VALID,95.5976,VALID,0.107441,VALID,19.4118,VALID,317,VALID,0,
2012-08-02, 01:47:04,VALID,918.094,VALID,0,VALID,95.5519,VALID,0,VALID,19.4327,VALID,319,VALID,0,
2012-08-02, 01:48:04,VALID,918.089,VALID,0,VALID,95.4985,VALID,0,VALID,19.4118,VALID,320,VALID,0,
2012-08-02, 01:49:04,VALID,918.059,VALID,0,VALID,95.4604,VALID,0,VALID,19.3923,VALID,324,VALID,0,
2012-08-02, 01:50:04,VALID,918.059,VALID,0,VALID,95.468,VALID,0,VALID,19.3728,VALID,335,VALID,0,
2012-08-02, 01:51:04,VALID,918.049,VALID,0,VALID,95.4833,VALID,0,VALID,19.3937,VALID,335,VALID,0,
2012-08-02, 01:52:04,VALID,918.028,VALID,0,VALID,95.4604,VALID,0,VALID,19.3728,VALID,350,VALID,0,
2012-08-02, 01:53:04,VALID,917.961,VALID,0,VALID,95.4604,VALID,0.107441,VALID,19.3728,VALID,354,VALID,0,
2012-08-02, 01:54:04,VALID,917.954,VALID,0,VALID,95.4452,VALID,0,VALID,19.4132,VALID,354,VALID,0,
2012-08-02, 01:55:04,VALID,917.919,VALID,0,VALID,95.4223,VALID,0,VALID,19.3923,VALID,354,VALID,0,
2012-08-02, 01:56:04,VALID,917.9,VALID,0,VALID,95.3918,VALID,0,VALID,19.3937,VALID,354,VALID,0,
2012-08-02, 01:57:04,VALID,917.928,VALID,0,VALID,95.3994,VALID,0,VALID,19.3937,VALID,354,VALID,0,
2012-08-02, 01:58:04,VALID,917.908,VALID,0,VALID,95.4071,VALID,0,VALID,19.3937,VALID,354,VALID,0,
2012-08-02, 01:59:04,VALID,917.899,VALID,0,VALID,95.4757,VALID,0,VALID,19.3937,VALID,354,VALID,0,
2012-08-02, 02:00:04,VALID,917.929,VALID,0,VALID,95.4757,VALID,0.107441,VALID,19.3923,VALID,354,VALID,0,
2012-08-02, 02:01:04,VALID,917.957,VALID,0,VALID,95.5062,VALID,0,VALID,19.3923,VALID,354,VALID,0,
2012-08-02, 02:02:04,VALID,917.888,VALID,0,VALID,95.5214,VALID,0.107441,VALID,19.4118,VALID,354,VALID,0,
2012-08-02, 02:03:04,VALID,917.903,VALID,0,VALID,95.5443,VALID,0.107441,VALID,19.4508,VALID,354,VALID,0,
2012-08-02, 02:04:04,VALID,917.927,VALID,0,VALID,95.5138,VALID,0.107441,VALID,19.4703,VALID,354,VALID,0,
2012-08-02, 02:05:04,VALID,917.919,VALID,0,VALID,95.4757,VALID,0,VALID,19.4703,VALID,354,VALID,0,
2012-08-02, 02:06:04,VALID,917.919,VALID,0,VALID,95.4604,VALID,0.107441,VALID,19.4898,VALID,354,VALID,0,
2012-08-02, 02:07:04,VALID,917.903,VALID,0,VALID,95.4604,VALID,0.107441,VALID,19.4898,VALID,354,VALID,0,
2012-08-02, 02:08:04,VALID,917.929,VALID,0,VALID,95.3689,VALID,0.107441,VALID,19.4898,VALID,354,VALID,0,
2012-08-02, 02:09:04,VALID,917.902,VALID,0,VALID,95.2622,VALID,0.107441,VALID,19.4898,VALID,354,VALID,0,
2012-08-02, 02:10:04,VALID,917.895,VALID,0,VALID,95.1783,VALID,0.107441,VALID,19.4898,VALID,334,VALID,0,
2012-08-02, 02:11:04,VALID,917.899,VALID,0,VALID,95.1097,VALID,0.107441,VALID,19.5288,VALID,334,VALID,0,
2012-08-02, 02:12:04,VALID,917.895,VALID,0,VALID,95.064,VALID,0,VALID,19.5288,VALID,334,VALID,0,
2012-08-02, 02:13:04,VALID,917.865,VALID,0,VALID,95.1021,VALID,0,VALID,19.5693,VALID,334,VALID,0,
2012-08-02, 02:14:04,VALID,917.861,VALID,0,VALID,95.1555,VALID,0,VALID,19.5288,VALID,334,VALID,0,
2012-08-02, 02:15:04,VALID,917.862,VALID,0,VALID,95.247,VALID,0.107441,VALID,19.5093,VALID,334,VALID,0,
2012-08-02, 02:16:04,VALID,917.852,VALID,0,VALID,95.3308,VALID,0.107441,VALID,19.4898,VALID,334,VALID,0,
2012-08-02, 02:17:04,VALID,917.862,VALID,0,VALID,95.4071,VALID,0,VALID,19.4718,VALID,334,VALID,0,
2012-08-02, 02:18:04,VALID,917.847,VALID,0,VALID,95.4528,VALID,0.107441,VALID,19.4327,VALID,334,VALID,0,
2012-08-02, 02:19:04,VALID,917.839,VALID,0,VALID,95.5138,VALID,0,VALID,19.4523,VALID,334,VALID,0,
2012-08-02, 02:20:04,VALID,917.862,VALID,0,VALID,95.5519,VALID,0.107441,VALID,19.4327,VALID,334,VALID,0,
2012-08-02, 02:21:04,VALID,917.871,VALID,0,VALID,95.529,VALID,0,VALID,19.4132,VALID,334,VALID,0,
2012-08-02, 02:22:04,VALID,917.861,VALID,0,VALID,95.529,VALID,0.107441,VALID,19.4132,VALID,334,VALID,0,
2012-08-02, 02:23:04,VALID,917.812,VALID,0,VALID,95.468,VALID,0,VALID,19.3923,VALID,334,VALID,0,
2012-08-02, 02:24:04,VALID,917.793,VALID,0,VALID,95.4452,VALID,0.107441,VALID,19.3533,VALID,334,VALID,0,
2012-08-02, 02:25:04,VALID,917.785,VALID,0,VALID,95.4757,VALID,0.107441,VALID,19.3338,VALID,334,VALID,0,
2012-08-02, 02:26:04,VALID,917.778,VALID,0,VALID,95.5062,VALID,0,VALID,19.3157,VALID,334,VALID,0,
2012-08-02, 02:27:04,VALID,917.721,VALID,0,VALID,95.529,VALID,0,VALID,19.2767,VALID,334,VALID,0,
2012-08-02, 02:28:04,VALID,917.715,VALID,0,VALID,95.5824,VALID,0,VALID,19.2572,VALID,334,VALID,0,
2012-08-02, 02:29:04,VALID,917.728,VALID,0,VALID,95.6739,VALID,0.107441,VALID,19.2572,VALID,334,VALID,0,
2012-08-02, 02:30:04,VALID,917.7,VALID,0,VALID,95.7425,VALID,0,VALID,19.2377,VALID,334,VALID,0,
2012-08-02, 02:31:04,VALID,917.727,VALID,0,VALID,95.8111,VALID,0,VALID,19.1987,VALID,334,VALID,0,
2012-08-02, 02:32:04,VALID,917.717,VALID,0,VALID,95.9254,VALID,0,VALID,19.2377,VALID,334,VALID,0,
2012-08-02, 02:33:04,VALID,917.682,VALID,0,VALID,96.1008,VALID,0,VALID,19.2572,VALID,295,VALID,0,
2012-08-02, 02:34:04,VALID,917.707,VALID,0,VALID,96.2304,VALID,0,VALID,19.2767,VALID,242,VALID,0,
2012-08-02, 02:35:04,VALID,917.695,VALID,0,VALID,96.2837,VALID,0,VALID,19.2962,VALID,242,VALID,0,
2012-08-02, 02:36:04,VALID,917.738,VALID,0,VALID,96.3752,VALID,0.107441,VALID,19.2962,VALID,242,VALID,0,
2012-08-02, 02:37:04,VALID,917.756,VALID,0,VALID,96.4362,VALID,0,VALID,19.3157,VALID,242,VALID,0,
2012-08-02, 02:38:04,VALID,917.783,VALID,0,VALID,96.4286,VALID,0.107441,VALID,19.2962,VALID,242,VALID,0,
2012-08-02, 02:39:04,VALID,917.801,VALID,0,VALID,96.4896,VALID,0,VALID,19.2767,VALID,242,VALID,0,
2012-08-02, 02:40:04,VALID,917.778,VALID,0,VALID,96.5506,VALID,0,VALID,19.2962,VALID,242,VALID,0,
2012-08-02, 02:41:04,VALID,917.766,VALID,0,VALID,96.5734,VALID,0,VALID,19.2977,VALID,242,VALID,0,
2012-08-02, 02:42:04,VALID,917.784,VALID,0,VALID,96.4972,VALID,0,VALID,19.2587,VALID,242,VALID,0,
2012-08-02, 02:43:04,VALID,917.788,VALID,0,VALID,96.5048,VALID,0,VALID,19.2197,VALID,242,VALID,0,
2012-08-02, 02:44:04,VALID,917.752,VALID,0,VALID,96.5353,VALID,0,VALID,19.2002,VALID,242,VALID,0,
2012-08-02, 02:45:04,VALID,917.784,VALID,0,VALID,96.5887,VALID,0,VALID,19.2017,VALID,242,VALID,0,
2012-08-02, 02:46:04,VALID,917.808,VALID,0,VALID,96.5963,VALID,0,VALID,19.1612,VALID,242,VALID,0,
2012-08-02, 02:47:04,VALID,917.795,VALID,0,VALID,96.6115,VALID,0,VALID,19.1417,VALID,242,VALID,0,
2012-08-02, 02:48:04,VALID,917.754,VALID,0,VALID,96.6497,VALID,0,VALID,19.1417,VALID,242,VALID,0,
2012-08-02, 02:49:04,VALID,917.772,VALID,0,VALID,96.6497,VALID,0,VALID,19.1012,VALID,242,VALID,0,
2012-08-02, 02:50:04,VALID,917.732,VALID,0,VALID,96.6954,VALID,0,VALID,19.0817,VALID,242,VALID,0,
2012-08-02, 02:51:04,VALID,917.673,VALID,0,VALID,96.7335,VALID,0,VALID,19.0817,VALID,242,VALID,0,
2012-08-02, 02:52:04,VALID,917.632,VALID,0,VALID,96.7869,VALID,0,VALID,19.1012,VALID,242,VALID,0,
2012-08-02, 02:53:04,VALID,917.618,VALID,0,VALID,96.8326,VALID,0,VALID,19.1207,VALID,242,VALID,0,
2012-08-02, 02:54:04,VALID,917.596,VALID,0,VALID,96.8784,VALID,0,VALID,19.1207,VALID,242,VALID,0,
2012-08-02, 02:55:04,VALID,917.583,VALID,0,VALID,96.825,VALID,0,VALID,19.1417,VALID,242,VALID,0,
2012-08-02, 02:56:04,VALID,917.617,VALID,0,VALID,96.764,VALID,0,VALID,19.1207,VALID,242,VALID,0,
2012-08-02, 02:57:04,VALID,917.6,VALID,0,VALID,96.825,VALID,0,VALID,19.1012,VALID,242,VALID,0,
2012-08-02, 02:58:04,VALID,917.566,VALID,0,VALID,96.8707,VALID,0,VALID,19.0803,VALID,242,VALID,0,
2012-08-02, 02:59:04,VALID,917.543,VALID,0,VALID,96.8936,VALID,0,VALID,19.1012,VALID,242,VALID,0,
2012-08-02, 03:00:04,VALID,917.539,VALID,0,VALID,96.8936,VALID,0,VALID,19.1012,VALID,242,VALID,0,
2012-08-02, 03:01:04,VALID,917.504,VALID,0,VALID,96.7793,VALID,0,VALID,19.0427,VALID,242,VALID,0,
2012-08-02, 03:02:04,VALID,917.508,VALID,0,VALID,96.8021,VALID,0.107441,VALID,19.0037,VALID,242,VALID,0,
2012-08-02, 03:03:04,VALID,917.499,VALID,0,VALID,96.8174,VALID,0.107441,VALID,18.9438,VALID,242,VALID,0,
2012-08-02, 03:04:04,VALID,917.467,VALID,0,VALID,96.8479,VALID,0,VALID,18.9452,VALID,242,VALID,0,
2012-08-02, 03:05:04,VALID,917.475,VALID,0,VALID,96.8936,VALID,0,VALID,18.8867,VALID,242,VALID,0,
2012-08-02, 03:06:04,VALID,917.458,VALID,0,VALID,96.9241,VALID,0,VALID,18.9062,VALID,242,VALID,0,
2012-08-02, 03:07:04,VALID,917.451,VALID,0,VALID,96.9317,VALID,0,VALID,18.9062,VALID,242,VALID,0,
2012-08-02, 03:08:04,VALID,917.468,VALID,0,VALID,96.9775,VALID,0,VALID,18.8672,VALID,242,VALID,0,
2012-08-02, 03:09:04,VALID,917.478,VALID,0,VALID,97.0232,VALID,0,VALID,18.8867,VALID,242,VALID,0,
2012-08-02, 03:10:04,VALID,917.479,VALID,0,VALID,97.008,VALID,0,VALID,18.8867,VALID,241,VALID,0,
2012-08-02, 03:11:04,VALID,917.494,VALID,0,VALID,97.008,VALID,0,VALID,18.8672,VALID,242,VALID,0,
2012-08-02, 03:12:04,VALID,917.437,VALID,0,VALID,97.069,VALID,0,VALID,18.8867,VALID,242,VALID,0,
2012-08-02, 03:13:04,VALID,917.418,VALID,0,VALID,96.9698,VALID,0,VALID,18.8477,VALID,242,VALID,0,
2012-08-02, 03:14:04,VALID,917.403,VALID,0,VALID,96.9546,VALID,0,VALID,18.8087,VALID,242,VALID,0,
2012-08-02, 03:15:04,VALID,917.377,VALID,0,VALID,96.9698,VALID,0,VALID,18.7697,VALID,242,VALID,0,
2012-08-02, 03:16:04,VALID,917.358,VALID,0,VALID,97.0003,VALID,0,VALID,18.7503,VALID,242,VALID,0,
2012-08-02, 03:17:04,VALID,917.348,VALID,0,VALID,97.0842,VALID,0,VALID,18.7308,VALID,242,VALID,0,
2012-08-02, 03:18:04,VALID,917.383,VALID,0,VALID,97.0842,VALID,0,VALID,18.7503,VALID,242,VALID,0,
2012-08-02, 03:19:04,VALID,917.393,VALID,0,VALID,97.1071,VALID,0,VALID,18.7503,VALID,242,VALID,0,
2012-08-02, 03:20:04,VALID,917.439,VALID,0,VALID,97.1147,VALID,0.107441,VALID,18.7503,VALID,242,VALID,0,
2012-08-02, 03:21:04,VALID,917.397,VALID,0,VALID,97.1528,VALID,0,VALID,18.7697,VALID,242,VALID,0,
2012-08-02, 03:22:04,VALID,917.456,VALID,0,VALID,97.1452,VALID,0,VALID,18.7683,VALID,242,VALID,0,
2012-08-02, 03:23:04,VALID,917.446,VALID,0,VALID,97.1681,VALID,0,VALID,18.7892,VALID,242,VALID,0,
2012-08-02, 03:24:04,VALID,917.43,VALID,0,VALID,97.1833,VALID,0.107441,VALID,18.8087,VALID,242,VALID,0,
2012-08-02, 03:25:04,VALID,917.467,VALID,0,VALID,97.1909,VALID,0,VALID,18.8282,VALID,242,VALID,0,
2012-08-02, 03:26:04,VALID,917.45,VALID,0,VALID,97.1833,VALID,0,VALID,18.8087,VALID,242,VALID,0,
2012-08-02, 03:27:04,VALID,917.421,VALID,0,VALID,97.1604,VALID,0,VALID,18.7697,VALID,242,VALID,0,
2012-08-02, 03:28:04,VALID,917.446,VALID,0,VALID,97.1452,VALID,0,VALID,18.7308,VALID,242,VALID,0,
2012-08-02, 03:29:04,VALID,917.435,VALID,0,VALID,97.1452,VALID,0,VALID,18.7113,VALID,242,VALID,0,
2012-08-02, 03:30:04,VALID,917.428,VALID,0,VALID,97.1452,VALID,0,VALID,18.7113,VALID,242,VALID,0,
2012-08-02, 03:31:04,VALID,917.447,VALID,0,VALID,97.1681,VALID,0,VALID,18.7113,VALID,242,VALID,0,
2012-08-02, 03:32:04,VALID,917.4,VALID,0,VALID,97.1833,VALID,0,VALID,18.7113,VALID,242,VALID,0,
2012-08-02, 03:33:04,VALID,917.379,VALID,0,VALID,97.2062,VALID,0,VALID,18.7308,VALID,242,VALID,0,
2012-08-02, 03:34:04,VALID,917.345,VALID,0,VALID,97.2214,VALID,0,VALID,18.7503,VALID,242,VALID,0,
2012-08-02, 03:35:04,VALID,917.32,VALID,0,VALID,97.2443,VALID,0,VALID,18.7503,VALID,242,VALID,0,
2012-08-02, 03:36:04,VALID,917.306,VALID,0,VALID,97.2519,VALID,0,VALID,18.7892,VALID,242,VALID,0,
2012-08-02, 03:37:04,VALID,917.293,VALID,0,VALID,97.29,VALID,0,VALID,18.8282,VALID,242,VALID,0,
2012-08-02, 03:38:04,VALID,917.257,VALID,0,VALID,97.2977,VALID,0,VALID,18.8867,VALID,242,VALID,0,
2012-08-02, 03:39:04,VALID,917.213,VALID,0,VALID,97.3205,VALID,0,VALID,18.9062,VALID,242,VALID,0,
2012-08-02, 03:40:04,VALID,917.22,VALID,0,VALID,97.3358,VALID,0.107441,VALID,18.9452,VALID,242,VALID,0,
2012-08-02, 03:41:04,VALID,917.191,VALID,0,VALID,97.3281,VALID,0,VALID,18.9842,VALID,242,VALID,0,
2012-08-02, 03:42:04,VALID,917.155,VALID,0,VALID,97.3434,VALID,0,VALID,19.0037,VALID,242,VALID,0,
2012-08-02, 03:43:04,VALID,917.162,VALID,0,VALID,97.3281,VALID,0,VALID,18.9842,VALID,242,VALID,0,
2012-08-02, 03:44:04,VALID,917.132,VALID,0,VALID,97.3129,VALID,0,VALID,18.9842,VALID,242,VALID,0,
2012-08-02, 03:45:04,VALID,917.115,VALID,0,VALID,97.3358,VALID,0,VALID,18.9842,VALID,242,VALID,0,
2012-08-02, 03:46:04,VALID,917.135,VALID,0,VALID,97.2977,VALID,0,VALID,18.9842,VALID,242,VALID,0,
2012-08-02, 03:47:04,VALID,917.106,VALID,0,VALID,97.3053,VALID,0,VALID,18.9647,VALID,242,VALID,0,
2012-08-02, 03:48:04,VALID,917.128,VALID,0,VALID,97.3053,VALID,0,VALID,18.9647,VALID,242,VALID,0,
2012-08-02, 03:49:04,VALID,917.139,VALID,0,VALID,97.2595,VALID,0,VALID,18.8867,VALID,242,VALID,0,
2012-08-02, 03:50:04,VALID,917.152,VALID,0,VALID,97.2443,VALID,0,VALID,18.8297,VALID,242,VALID,0,
2012-08-02, 03:51:04,VALID,917.151,VALID,0,VALID,97.229,VALID,0,VALID,18.7517,VALID,242,VALID,0,
2012-08-02, 03:52:04,VALID,917.147,VALID,0,VALID,97.1909,VALID,0,VALID,18.7113,VALID,242,VALID,0,
2012-08-02, 03:53:04,VALID,917.113,VALID,0,VALID,97.2214,VALID,0,VALID,18.6513,VALID,242,VALID,0,
2012-08-02, 03:54:04,VALID,917.098,VALID,0,VALID,97.2138,VALID,0,VALID,18.7127,VALID,242,VALID,0,
2012-08-02, 03:55:04,VALID,917.075,VALID,0,VALID,97.2824,VALID,0,VALID,18.7113,VALID,242,VALID,0,
2012-08-02, 03:56:04,VALID,917.078,VALID,0,VALID,97.2824,VALID,0,VALID,18.7503,VALID,242,VALID,0,
2012-08-02, 03:57:04,VALID,917.071,VALID,0,VALID,97.3205,VALID,0.107441,VALID,18.7892,VALID,242,VALID,0,
2012-08-02, 03:58:04,VALID,917.119,VALID,0,VALID,97.3129,VALID,0,VALID,18.8087,VALID,242,VALID,0,